Regional Weather Roundup
Issued by NWS Charleston, WV

Home | Current Version | Previous Version | Text Only | Print | Product List | Glossary Off
Versions: 1 2 3 4 5 6 7 8 9 10 11 12 13 14 15 16 17 18 19 20 21 22 23 24 25 26 27 28 29 30 31 32 33 34 35 36 37 38 39 40 41 42 43 44 45 46 47 48 49 50

468
ASUS41 KRLX 201410
RWRRLX
West Virginia Regional Weather Roundup
National Weather Service Charleston WV
1000 AM EDT THU JUL 20 2017

Note: "fair" indicates few or no clouds below 12,000 feet with no
significant weather and/or obstructions to visibility.

WVZ003-201500-
Northern Panhandle of West Virginia

CITY           SKY/WX    TMP DP  RH WIND       PRES   REMARKS
WHEELING       SUNNY     79  70  74 SW6       30.10F
$$

WVZ009-201500-
Northwest West Virginia

CITY           SKY/WX    TMP DP  RH WIND       PRES   REMARKS
PARKERSBURG    CLOUDY    81  70  69 VRB3      30.13F
$$

WVZ006-201500-
Western West Virginia

CITY           SKY/WX    TMP DP  RH WIND       PRES   REMARKS
HUNTINGTON     SUNNY     81  72  74 S3        30.13F
$$

WVZ015-201500-
West Central West Virginia

CITY           SKY/WX    TMP DP  RH WIND       PRES   REMARKS
CHARLESTON     MOSUNNY   80  71  74 SW3       30.15R
$$

WVZ022-031-201500-
North Central West Virginia

CITY           SKY/WX    TMP DP  RH WIND       PRES   REMARKS
CLARKSBURG     MOSUNNY   79  70  74 S6        30.13F
MORGANTOWN     SUNNY     79  70  74 S5        30.12F
$$

WVZ025-035-042-045-201500-
Southern West Virginia

CITY           SKY/WX    TMP DP  RH WIND       PRES   REMARKS
BECKLEY        SUNNY     77  67  71 SW5       30.22R
LOGAN            N/A     77  70  78 CALM      30.19S
BLUEFIELD      SUNNY     75  65  70 W5        30.25R
LEWISBURG      SUNNY     71  66  82 CALM      30.22S
$$

WVZ047-201500-
Northern Mountains of West Virginia

CITY           SKY/WX    TMP DP  RH WIND       PRES   REMARKS
ELKINS         MOSUNNY   76  66  71 CALM      30.19S
$$

WVZ052-201500-
Eastern Panhandle of West Virginia

CITY           SKY/WX    TMP DP  RH WIND       PRES   REMARKS
MARTINSBURG    CLOUDY    84  70  62 S3        30.06S
PETERSBURG     SUNNY     82  71  67 SE3       30.12S
$$




USA.gov is the U.S. government's official web portal to all federal, state and local government web resources and services.